Regional Weather Roundup
Issued by NWS

Home | Current Version | Previous Version | Graphics & Text | Print | Product List | Glossary On
Versions: 1 2 3 4 5 6 7 8 9 10 11 12 13 14 15 16 17 18 19 20 21 22 23 24 25 26 27 28 29 30 31 32 33 34 35 36 37 38 39 40 41 42 43 44 45 46 47 48 49 50
000
ASUS43 KIND 232059
RWRIN

WEATHER ROUNDUP FOR INDIANA
NATIONAL WEATHER SERVICE INDIANAPOLIS IN
500 PM EDT THU OCT 23 2014

NOTE: "FAIR" INDICATES FEW OR NO CLOUDS BELOW 12,000 FEET WITH NO
SIGNIFICANT WEATHER AND/OR OBSTRUCTIONS TO VISIBILITY.

* - STATION DOES NOT REPORT WEATHER SUCH AS PRECIPITATION OR FOG.

+ - STATION NOT QUALITY CONTROLLED BY THE NATIONAL WEATHER SERVICE.
    USE DATA WITH CAUTION...ESPECIALLY DEWPOINT AND RELATIVE
    HUMIDITY OBSERVATIONS.

INZ001>003-010>013-019-020-232200-
NORTHWEST INDIANA

CITY           SKY/WX    TMP DP  RH WIND       PRES   REMARKS
GARY /AIRPORT/ PTSUNNY   61  39  44 S8        30.11F
VALPARAISO     NOT AVBL

$$

LMZ046-743>745-232200-
SOUTHERN LAKE MICHIGAN

STATION/POSITION TIME  TEMP WIND        PRES
                       AIR  DIR/SP/G
                 (UTC) (F)  (DEG/KT/KT) (MB)
MICHIGAN CITY    2000   58  160/  6/  9   N/A

$$

INZ004-005-014>016-021>024-232200-
NORTH CENTRAL INDIANA

CITY           SKY/WX    TMP DP  RH WIND       PRES   REMARKS
ELKHART        MOSUNNY   57  37  47 S6        30.12F
GOSHEN         MOSUNNY   57  40  52 SE7       30.12F
SOUTH BEND     MOSUNNY   58  39  49 SW7       30.13F

$$

INZ006>009-017-018-025>027-232200-
NORTHEAST INDIANA

CITY           SKY/WX    TMP DP  RH WIND       PRES   REMARKS
ANGOLA *+        N/A     59  48  67 W3        30.14S
FORT WAYNE     PTSUNNY   57  38  48 W6        30.14F

$$

INZ028-029-035-036-043>045-051>053-232200-
WEST CENTRAL INDIANA

CITY           SKY/WX    TMP DP  RH WIND       PRES   REMARKS
GREENCASTLE +  PTSUNNY   55  41  58 CALM      30.14F
LAFAYETTE      PTSUNNY   56  42  59 NW3       30.13F
TERRE HAUTE    PTSUNNY   59  41  51 CALM      30.15S

$$

INZ030>032-037>040-046>048-054>057-064-065-232200-
CENTRAL INDIANA

CITY           SKY/WX    TMP DP  RH WIND       PRES   REMARKS
COLUMBUS       SUNNY     59  37  44 CALM      30.15F
INDIANAPOLIS   PTSUNNY   57  37  47 CALM      30.14S
-EAGLE CREEK   PTSUNNY   57  38  48 CALM      30.14F
KOKOMO *+      CLOUDY    59  39  47 CALM      30.14F
MT COMFORT *+  CLOUDY    57  27  30 CALM      30.15F
SHELBYVILLE    CLOUDY    60  39  45 W3        30.14S

$$

INZ033-034-041-042-049-050-058-059-232200-
EAST CENTRAL INDIANA

CITY           SKY/WX    TMP DP  RH WIND       PRES   REMARKS
MUNCIE         PTSUNNY   57  39  51 W5        30.14F

$$

INZ060-061-067>069-081>083-085>088-232200-
SOUTHWEST INDIANA

CITY           SKY/WX    TMP DP  RH WIND       PRES   REMARKS
EVANSVILLE     MOSUNNY   61  40  45 W3        30.15F
HUNTINGBURG *+ MOSUNNY   61  39  44 NE3       30.14F

$$

INZ062-063-066-070>080-084-089>092-232200-
SOUTH CENTRAL AND SOUTHEAST INDIANA

CITY           SKY/WX    TMP DP  RH WIND       PRES   REMARKS
BLOOMINGTON    PTSUNNY   60  39  45 CALM      30.14S

$$




USA.gov is the U.S. government's official web portal to all federal, state and local government web resources and services.